Location: Barcelona
(41.3830°N, 2.1830°E)
Time: 15:00:21
(UTC+02:00)

ISS - Visible Passes

Search period start: 23 May 2018 00:00
Search period end: 02 June 2018 00:00
Orbit: 402 x 407 km, 51.6° (Epoch: 24 May)

Date Brightness Start Highest point End Pass type
(mag) Time Alt. Az. Time Alt. Az. Time Alt. Az.
23 May -0.6 00:36:54 10° NW 00:38:57 15° N 00:41:00 10° NNE visible
23 May -0.7 02:14:21 10° NNW 02:16:25 16° N 02:18:30 10° NE visible
23 May -2.7 03:50:23 10° NW 03:53:32 44° NNE 03:56:40 10° ESE visible
23 May -2.6 05:27:15 10° W 05:29:50 21° SW 05:32:23 10° S visible
23 May -3.7 22:06:20 10° WSW 22:09:36 76° NW 22:12:52 10° NE visible
23 May -0.9 23:44:06 10° WNW 23:46:30 19° NNW 23:48:55 10° NNE visible
24 May -0.5 01:22:08 10° NNW 01:23:57 14° N 01:25:46 10° NE visible
24 May -1.6 02:58:20 10° NW 03:00:18 24° N 03:00:18 24° N visible
24 May -1.3 04:40:48 10° SSE 04:40:48 10° SSE 04:40:53 10° SSE visible
24 May -1.3 22:51:21 10° W 22:54:06 24° NNW 22:56:53 10° NE visible
25 May -0.5 00:29:40 10° NW 00:31:27 14° N 00:33:14 10° NNE visible
25 May -1.1 02:06:18 10° NNW 02:08:18 20° N 02:08:18 20° N visible
25 May -2.1 21:58:42 10° W 22:01:45 36° NNW 22:04:49 10° NE visible
25 May -0.7 23:37:00 10° NW 23:38:57 15° N 23:40:53 10° NNE visible
26 May -0.9 01:14:13 10° NNW 01:16:24 17° NNE 01:17:14 15° NNE visible
26 May -0.8 22:44:10 10° WNW 22:46:27 17° NNW 22:48:43 10° NNE visible
27 May -0.7 00:22:01 10° NNW 00:23:54 14° N 00:25:48 10° NE visible
27 May -1.0 01:58:07 10° NW 01:59:01 16° NNW 01:59:01 16° NNW visible
27 May -1.1 21:51:21 10° WNW 21:53:59 22° NNW 21:56:38 10° NE visible
27 May -0.7 23:29:36 10° NNW 23:31:22 14° N 23:33:08 10° NNE visible
28 May -1.3 01:06:03 10° NW 01:08:17 22° N 01:08:17 22° N visible
28 May -0.8 22:36:57 10° NW 22:38:50 14° N 22:40:41 10° NNE visible
29 May -1.2 00:13:57 10° NNW 00:16:17 18° NNE 00:17:36 14° NE visible
29 May -0.7 01:49:58 10° NW 01:50:14 12° NW 01:50:14 12° NW visible
29 May -0.9 21:44:07 10° NW 21:46:17 16° NNW 21:48:26 10° NNE visible
29 May -0.9 23:21:45 10° NNW 23:23:45 15° N 23:25:44 10° NE visible
30 May -1.6 00:57:48 10° NW 00:59:36 26° NNW 00:59:36 26° NNW visible
30 May -0.9 22:29:23 10° NNW 22:31:11 14° N 22:32:58 10° NE visible
31 May -1.9 00:05:41 10° NW 00:08:30 26° NNE 00:08:58 25° NE visible
31 May -1.4 23:13:33 10° NNW 23:16:01 19° NNE 23:18:23 10° ENE visible
01 Jun -1.6 00:49:37 10° NW 00:51:01 23° NW 00:51:01 23° NW visible
01 Jun -1.1 22:21:22 10° NNW 22:23:28 16° N 22:25:34 10° NE visible
